Reading, PA

1:21 PM EST on December 15, 2019 (GMT -0500)
Reading Regional-Spaatz

Weather History for KRDG - August, 2019

Change the Weather History Date:

Sunday, August 11, 2019

  Actual Average Record
Temperature  
Mean Temperature 70 °F 74 °F  
Max Temperature 82 °F 84 °F 99 °F (1900)
Min Temperature 57 °F 63 °F 47 °F (1972)
Degree Days  
Heating Degree Days 0 0  
Month to date heating degree days 0 0  
Since 1 June heating degree days 16 25  
Since 1 July heating degree days 0 1  
Cooling Degree Days 5 9  
Month to date cooling degree days 127 99  
Year to date cooling degree days 865 651  
Since 1 June cooling degree days 760 591  
Growing Degree Days 19 (Base 50)    
Moisture  
Dew Point 57 °F    
Average Humidity 70    
Maximum Humidity 100    
Minimum Humidity 39    
Precipitation  
Precipitation 0.00 in 0.11 in 2.60 in (1986)
Month to date precipitation 0.86 1.28  
Year to date precipitation 39.15 26.60  
Sea Level Pressure  
Sea Level Pressure 30.03 in    
Wind  
Wind Speed 3 mph (WNW)    
Max Wind Speed 13 mph    
Max Gust Speed 18 mph    
Visibility 10 miles    
Events      
T = Trace of Precipitation, MM = Missing Value Source: NWS Daily Summary

Daily Weather History Graph

Daily Weather History Graph

Search for Another Location

Airport or City:

Astronomy

Aug. 11, 2019 Rise Set
Actual Time 6:10 AM EDT 8:06 PM EDT
Civil Twilight 5:41 AM EDT 8:36 PM EDT
Nautical Twilight 5:04 AM EDT 9:12 PM EDT
Astronomical Twilight 4:25 AM EDT 9:51 PM EDT
Moon 5:44 PM EDT (8/11) 2:29 AM EDT (8/11)
Length of Visible Light 14h 55m
Length of Day
13h 56m
Waxing Gibbous, 87% of the Moon is Illuminated
Aug 11
Waxing Gibbous
Aug 15
Full
Aug 23
Last Quarter
Aug 30
New
Sep 5
First Quarter

Hourly Weather History & Observations

Time (EDT) Temp. Heat Index Dew Point Humidity Pressure Visibility Wind Dir Wind Speed Gust Speed Precip Events Conditions
12:54 AM 64.0 °F - 60.1 °F 87% 29.98 in 10.0 mi Calm Calm - N/A   Clear
1:54 AM 62.1 °F - 61.0 °F 96% 29.99 in 10.0 mi Calm Calm - N/A   Clear
2:54 AM 60.1 °F - 59.0 °F 96% 29.99 in 10.0 mi Calm Calm - N/A   Clear
3:54 AM 60.1 °F - 59.0 °F 96% 29.99 in 10.0 mi Calm Calm - N/A   Clear
4:54 AM 57.9 °F - 57.9 °F 100% 30.01 in 10.0 mi Calm Calm - N/A   Clear
5:54 AM 57.9 °F - 57.0 °F 97% 30.03 in 10.0 mi Calm Calm - N/A   Clear
6:54 AM 57.9 °F - 57.9 °F 100% 30.04 in 10.0 mi Calm Calm - N/A   Clear
7:54 AM 64.0 °F - 59.0 °F 84% 30.06 in 10.0 mi Calm Calm - N/A   Clear
8:54 AM 69.1 °F - 57.0 °F 65% 30.06 in 10.0 mi NW 4.6 mph - N/A   Clear
9:54 AM 73.0 °F - 57.0 °F 57% 30.07 in 10.0 mi NNE 4.6 mph - N/A   Clear
10:54 AM 75.9 °F - 57.0 °F 52% 30.07 in 10.0 mi NW 6.9 mph - N/A   Partly Cloudy
11:54 AM 77.0 °F - 55.0 °F 47% 30.07 in 10.0 mi West 5.8 mph - N/A   Scattered Clouds
12:54 PM 78.1 °F - 53.1 °F 42% 30.06 in 10.0 mi NNW 5.8 mph - N/A   Scattered Clouds
1:54 PM 80.1 °F 80.1 °F 55.0 °F 42% 30.06 in 10.0 mi North - - N/A   Scattered Clouds
2:54 PM 81.0 °F 80.7 °F 55.0 °F 41% 30.04 in 10.0 mi SSW 5.8 mph - N/A   Partly Cloudy
3:54 PM 79.0 °F - 55.0 °F 44% 30.02 in 10.0 mi SW 5.8 mph - N/A   Partly Cloudy
4:54 PM 80.1 °F 80.1 °F 55.0 °F 42% 30.02 in 10.0 mi WSW 8.1 mph - N/A   Clear
5:54 PM 80.1 °F 80.0 °F 54.0 °F 40% 30.01 in 10.0 mi NW 8.1 mph - N/A   Partly Cloudy
6:54 PM 79.0 °F - 55.0 °F 44% 30.01 in 10.0 mi NW 8.1 mph - N/A   Clear
7:54 PM 75.9 °F - 57.0 °F 52% 30.02 in 10.0 mi NW 6.9 mph - N/A   Clear
8:54 PM 72.0 °F - 57.9 °F 61% 30.02 in 10.0 mi Calm Calm - N/A   Clear
9:54 PM 70.0 °F - 59.0 °F 68% 30.03 in 10.0 mi Calm Calm - N/A   Clear
10:54 PM 64.9 °F - 59.0 °F 81% 30.02 in 10.0 mi Calm Calm - N/A   Clear
11:54 PM 63.0 °F - 59.0 °F 87% 30.03 in 10.0 mi Calm Calm - N/A   Clear